Holland, MI

7:47 AM EST on November 19, 2017 (GMT -0500)
Tulip City

Weather History for KBIV - September, 2013

Change the Weather History Date:

Thursday, September 26, 2013

  Actual Average Record
Temperature  
Mean Temperature 60 °F 59 °F  
Max Temperature 78 °F 69 °F 90 °F (2017)
Min Temperature 42 °F 49 °F 30 °F (1966)
Degree Days  
Heating Degree Days 5 7  
Month to date heating degree days 102 86  
Since 1 July heating degree days 121 101  
Cooling Degree Days 0 1  
Month to date cooling degree days 87 59  
Year to date cooling degree days 794 677  
Growing Degree Days 10 (Base 50)    
Moisture  
Dew Point 45 °F    
Average Humidity 66    
Maximum Humidity 100    
Minimum Humidity 31    
Precipitation  
Precipitation 0.00 in 0.15 in 1.17 in (1993)
Month to date precipitation 0.88 3.21  
Year to date precipitation 28.89 26.42  
Sea Level Pressure  
Sea Level Pressure 30.08 in    
Wind  
Wind Speed 4 mph (East)    
Max Wind Speed 12 mph    
Max Gust Speed 15 mph    
Visibility 6 miles    
Events Fog    
T = Trace of Precipitation, MM = Missing Value Source: NWS Daily Summary

Daily Weather History Graph

Daily Weather History Graph

Search for Another Location

Airport or City:

Trip Planner

Search our weather history database for the weather conditions in past years. The results will help you decide how hot, cold, wet, or windy it might be!

Date:

Astronomy

Sep. 26, 2013 Rise Set
Actual Time 7:36 AM EDT 7:34 PM EDT
Civil Twilight 7:08 AM EDT 8:02 PM EDT
Nautical Twilight 6:35 AM EDT 8:35 PM EDT
Astronomical Twilight 6:01 AM EDT 9:08 PM EDT
Moon No Moon Rise 2:35 PM EDT (9/26)
Length of Visible Light 12h 54m
Length of Day
11h 57m
Waning Gibbous, 55% of the Moon is Illuminated
Sep 26
Waning Gibbous
Sep 26
Last Quarter
Oct 4
New
Oct 11
First Quarter
Oct 18
Full

Hourly Weather History & Observations

Time (EDT) Temp. Windchill Dew Point Humidity Pressure Visibility Wind Dir Wind Speed Gust Speed Precip Events Conditions
12:53 AM 48.0 °F - 46.0 °F 93% 30.01 in 10.0 mi Calm Calm - N/A   Clear
1:53 AM 48.0 °F - 46.0 °F 93% 30.02 in 9.0 mi Calm Calm - N/A   Clear
2:53 AM 46.0 °F - 44.1 °F 93% 30.03 in 7.0 mi Calm Calm - N/A   Clear
3:01 AM 46.4 °F - 44.6 °F 93% 30.03 in 1.5 mi Calm Calm - N/A   Clear
3:04 AM 46.4 °F - 44.6 °F 93% 30.03 in 0.8 mi Calm Calm - N/A   Clear
3:14 AM 44.6 °F - 42.8 °F 93% 30.04 in 1.5 mi Calm Calm - N/A   Clear
3:17 AM 46.4 °F - 44.6 °F 93% 30.04 in 4.0 mi Calm Calm - N/A   Clear
3:53 AM 44.1 °F 42.5 °F 43.0 °F 96% 30.05 in 3.0 mi East 3.5 mph - 0.01 in   Clear
4:53 AM 45.0 °F - 44.1 °F 97% 30.06 in 8.0 mi Calm Calm - N/A   Clear
5:53 AM 45.0 °F - 43.0 °F 93% 30.07 in 5.0 mi Calm Calm - N/A   Clear
6:30 AM 42.8 °F - 42.8 °F 100% 30.08 in 1.5 mi Calm Calm - N/A   Clear
6:32 AM 42.8 °F - 41.0 °F 93% 30.08 in 0.8 mi Calm Calm - N/A   Clear
6:42 AM 44.6 °F - 42.8 °F 93% 30.08 in 0.5 mi Calm Calm - N/A Fog Fog
6:49 AM 42.8 °F - 42.8 °F 100% 30.08 in 0.2 mi Calm Calm - N/A Fog Fog
6:53 AM 44.1 °F - 42.1 °F 93% 30.08 in 0.2 mi Calm Calm - N/A Fog Fog
7:14 AM 42.8 °F - 42.8 °F 100% 30.08 in 1.2 mi Calm Calm - N/A   Partly Cloudy
7:16 AM 42.8 °F - 42.8 °F 100% 30.08 in 2.5 mi Calm Calm - N/A   Partly Cloudy
7:23 AM 44.6 °F - 42.8 °F 93% 30.08 in 7.0 mi Calm Calm - N/A   Clear
7:53 AM 44.1 °F 42.5 °F 43.0 °F 96% 30.04 in 3.0 mi East 3.5 mph - N/A   Clear
8:53 AM 48.9 °F - 48.0 °F 97% 30.06 in 9.0 mi Calm Calm - N/A   Clear
9:53 AM 55.9 °F - 51.1 °F 84% 30.13 in 10.0 mi Calm Calm - N/A   Clear
10:53 AM 64.0 °F - 51.1 °F 63% 30.13 in 10.0 mi Calm Calm - N/A   Clear
11:53 AM 69.1 °F - 46.9 °F 45% 30.12 in 10.0 mi ESE 10.4 mph - N/A   Clear
12:53 PM 72.0 °F - 46.0 °F 40% 30.10 in 10.0 mi SE 8.1 mph - N/A   Clear
1:53 PM 75.0 °F - 44.1 °F 33% 30.09 in 10.0 mi East 9.2 mph - N/A   Clear
2:53 PM 75.9 °F - 42.1 °F 30% 30.09 in 10.0 mi Variable 3.5 mph - N/A   Clear
3:53 PM 75.9 °F - 43.0 °F 31% 30.09 in 10.0 mi ESE 4.6 mph - N/A   Clear
4:53 PM 77.0 °F - 44.1 °F 31% 30.09 in 10.0 mi Variable 4.6 mph - N/A   Clear
5:53 PM 75.9 °F - 48.0 °F 37% 30.09 in 10.0 mi NE 5.8 mph - N/A   Clear
6:53 PM 73.0 °F - 46.9 °F 39% 30.09 in 10.0 mi East 5.8 mph - N/A   Clear
7:53 PM 64.9 °F - 48.0 °F 54% 30.10 in 10.0 mi ENE 3.5 mph - N/A   Clear
8:53 PM 60.1 °F - 48.0 °F 64% 30.12 in 10.0 mi East 4.6 mph - N/A   Clear
9:53 PM 57.0 °F - 48.0 °F 72% 30.12 in 10.0 mi East 4.6 mph - N/A   Clear
10:53 PM 55.9 °F - 48.9 °F 77% 30.12 in 10.0 mi East 3.5 mph - N/A   Clear
11:53 PM 57.0 °F - 48.9 °F 74% 30.12 in 10.0 mi ENE 4.6 mph - N/A   Clear